Location: Asheville, NC
(35.6000°N, 82.5500°W)
Time: 15:33:52
(UTC-04:00)

UWE-3 - Pass Details

Date: 15 March 2018
Orbit: 585 x 685 km, 97.6° (Epoch: 25 June)

Event Time Altitude Azimuth Distance (km) Brightness Sun altitude
Rises 20:30:47 0° 176° (S) 2,948 ? -11.6°
Reaches altitude 10° 20:33:03 10° 180° (S) 2,026 ? -12.0°
Maximum altitude 20:37:24 58° 260° (W) 732 ? -12.9°
Drops below altitude 10° 20:41:38 10° 340° (NNW) 1,979 ? -13.8°
Sets 20:43:50 0° 344° (NNW) 2,872 ? -14.2°
